User: anonymous   Login
Location: Unspecified
(0.0000°N, 0.0000°E)
Time: 23:31:33
(UTC+00:00)
Language:

NOSS 7 (H) - Orbit

View from above orbital plane
View from above orbital plane
View from above satellite
View from above satellite

Ground track
Ground track

The orbit data is extracted from the following two-line orbital elements,

1 16631U 86014H   16245.98384671 0.00000700  00000-0  94558-4 0    05
2 16631  63.3185 231.8928 0876626  44.0225 316.1493 13.45243653    03
Epoch (UTC): 01 September 2016 23:36:44
Eccentricity: 0.0876626
inclination: 63.3185°
perigee height: 435 km
apogee height: 1744 km
right ascension of ascending node: 231.8928°
argument of perigee: 44.0225°
revolutions per day: 13.45243653
mean anomaly at epoch: 316.1493°
orbit number at epoch: 0

The dashed part of the orbit path shows where the satellite is in the earth's shadow,  

DLR